Location: Prague
(50.0830°N, 14.4670°E)
Time: 09:34:29
(UTC+01:00)

Oscar 11 - Pass Details

Date: 29 November 2021
Orbit: 611 x 625 km, 97.6° (Epoch: 26 January)

Event Time Altitude Azimuth Distance (km) Brightness Sun altitude
Rises 17:05:01 0° 186° (S) 2,890 10.9 -9.5°
Reaches altitude 10° 17:07:19 10° 194° (SSW) 1,991 10.2 -9.8°
Maximum altitude 17:11:22 38° 263° (W) 962 8.7 -10.4°
Drops below altitude 10° 17:15:27 10° 332° (NNW) 2,011 9.8 -11.0°
Sets 17:17:48 0° 341° (NNW) 2,924 10.5 -11.4°
